CAPE
0 0 0 5 52 41 31 58 101 99 223 434 706 1120 1235 1556 1694 1640 1766 2013 2242 2179 1981 2017 1752 1793 1714 1547 1456 1598 1582 1699 1746 1446 1935 1938 1888 1896 1806 1960 1821 1393 1916
0 0 0 0 0 3 30 106 109 92 176 361 503 777 930 987 1460 1639 1808 1872 2099 1910 1856 1942 1780 1642 1755 1694 1690 1620 1648 1537 1479 1740 1948 2049 2088 1934 1961 1989 1834 1602 1777
0 0 0 0 0 0 40 110 141 156 123 305 473 701 883 888 1021 1580 1766 1939 2101 1959 1710 1752 1760 1788 1887 1717 1602 1526 1517 1503 1367 1889 1904 1189 1472 1883 1816 1989 1948 1812 1804
0 0 0 0 0 0 0 11 111 169 187 180 396 552 765 845 792 1048 1584 1761 2095 2132 1903 1650 1657 1901 2154 1667 1495 1165 1378 1266 1321 1710 1130 1224 1344 1835 1730 1720 1900 1848 2039
0 0 0 0 0 0 0 0 0 46 167 267 284 505 714 815 770 706 1068 1464 1791 2224 2128 1871 1770 2431 1941 1450 1298 1260 1216 1228 1214 1151 1183 1152 1173 1417 1739 1665 1812 1872 1988
0 0 0 0 0 0 0 0 0 0 1 150 227 391 620 848 746 740 772 1059 1480 1964 2334 2289 2425 2185 1467 1285 1147 1086 1054 1065 919 881 1094 1365 1254 1672 1654 1630 1705 1902 1955
0 0 0 0 0 0 0 0 0 0 0 0 103 140 474 688 825 764 719 707 778 1355 2110 2242 2349 1914 1361 1177 1113 902 781 684 466 652 1169 1266 1209 2009 1664 1574 1709 1898 1917
0 0 0 0 0 0 0 0 0 0 0 0 0 91 148 433 761 734 707 692 669 733 890 1812 2079 1934 1402 1122 1042 816 588 434 405 827 1143 1192 1520 2052 1641 1403 1562 1731 1796
0 0 0 0 0 0 0 0 0 0 0 0 0 0 54 180 602 625 718 702 598 643 741 763 1712 1935 1471 1127 891 886 491 473 456 848 1065 1155 1879 2066 1644 1406 1538 1747 1755
0 0 0 0 0 0 0 0 0 0 0 0 0 0 0 2 142 697 644 694 753 698 634 751 565 1577 1542 1111 802 857 681 474 437 610 1005 1178 1777 2065 1605 1653 1700 1759 1610
0 0 0 0 0 0 0 0 0 0 0 0 0 0 0 0 0 93 464 558 647 682 660 780 661 709 1640 1235 850 679 800 485 485 424 825 1175 1572 2128 1637 1788 1700 1681 1544
0 0 0 0 0 0 0 0 0 0 0 0 0 0 0 0 0 0 115 411 460 619 593 568 752 668 811 1222 872 724 544 538 502 362 697 1064 1528 1825 1833 1724 1677 1625 1445
0 0 0 0 0 0 0 0 0 0 0 0 0 0 0 0 0 0 0 99 366 347 431 499 581 512 561 1039 1119 814 549 553 542 499 354 806 1300 1879 1743 1654 1693 1578 1425
0 0 0 0 0 0 0 0 0 0 0 0 0 0 0 0 0 0 0 0 29 280 333 444 415 388 374 405 1087 856 584 527 535 458 389 348 776 1780 1913 1744 1486 1528 1452
0 0 0 0 0 0 0 0 0 0 0 0 0 0 0 0 0 0 0 0 0 0 27 93 273 470 242 267 571 1026 607 468 432 381 208 265 500 1041 1812 1901 1473 1337 1309
0 0 0 0 0 0 0 0 0 0 0 0 0 0 0 0 0 0 0 0 0 0 0 2 29 123 314 262 293 930 734 558 421 369 304 225 293 482 584 1116 1682 1578 1009
0 0 0 0 0 0 0 0 0 0 0 0 0 0 0 0 0 0 0 0 0 0 0 0 5 31 102 228 291 646 768 494 415 384 348 401 395 103 113 273 1023 1614 1403
0 0 0 0 0 0 0 0 0 0 0 0 0 0 0 0 0 0 0 0 0 0 0 0 3 5 18 14 85 310 445 385 333 326 329 275 70 85 157 408 805 1251 1123
0 0 0 0 0 0 0 0 0 0 0 0 0 0 0 0 0 0 0 0 0 0 0 0 0 2 26 27 42 135 268 321 320 262 272 268 154 173 313 456 585 773 950
0 0 0 0 0 0 0 0 0 0 0 0 0 0 0 0 0 0 0 0 0 0 0 0 0 0 0 21 0 52 118 262 315 312 269 211 159 82 130 6 64 113 607
0 0 0 0 0 0 0 0 0 0 0 0 0 0 0 0 0 0 0 0 0 0 0 0 0 0 3 0 1 5 32 75 128 245 342 261 268 98 74 62 0 52 296
0 0 0 0 0 0 0 0 0 0 0 0 0 0 0 0 0 0 0 0 0 0 0 0 0 0 0 15 12 3 0 41 61 75 113 220 285 311 268 300 15 27 362
0 0 0 0 0 0 0 0 0 0 0 0 0 0 0 0 0 0 0 0 0 0 0 0 0 0 0 14 25 9 0 0 0 38 130 113 189 205 267 341 55 149 397
0 0 0 0 0 0 0 0 0 0 0 0 0 0 0 0 0 0 0 0 0 0 0 0 0 0 0 0 21 8 0 0 36 74 88 166 106 182 219 327 334 310 279
0 0 0 0 0 0 0 0 0 0 0 0 0 0 0 0 0 0 0 0 0 0 0 0 0 0 0 0 0 8 0 2 40 13 53 110 157 106 104 224 350 412 352
0 0 0 0 0 0 0 0 0 0 0 0 0 0 0 0 0 0 0 0 0 0 0 0 0 0 0 0 0 0 0 0 4 16 26 33 88 97 157 159 239 307 330
CIN
0 0 0 -102 -27 -35 -54 -56 -56 -85 -17 -7 -3 0 -4 -2 -1 -8 -8 -3 -1 -0 0 0 -3 -6 -8 -13 -24 -23 -18 -16 -9 -13 -1 -0 0 0 0 0 0 -0 0
0 0 0 0 0 -105 -126 -64 -53 -85 -46 -4 -5 -2 -0 -8 -1 -1 -1 -1 -0 -0 0 0 -3 -10 -13 -14 -20 -26 -23 -21 -13 -3 -0 0 0 0 0 0 -0 -0 0
0 0 0 0 0 0 -74 -61 -51 -56 -89 -12 -2 -0 -0 -0 -4 -1 -0 -0 -0 0 0 -0 -5 -4 -7 -20 -20 -24 -24 -21 -14 -1 -0 -1 -1 0 0 0 0 0 0
0 0 0 0 0 0 0 -60 -54 -49 -58 -93 -15 -1 0 -0 -0 -2 -1 -1 -0 0 0 0 -2 -1 -0 -15 -16 -28 -23 -24 -12 -2 -4 -3 0 0 0 0 0 0 0
0 0 0 0 0 0 0 0 0 -74 -81 -57 -77 -13 0 0 0 0 -1 -2 -2 0 0 0 0 -0 -4 -24 -25 -16 -21 -24 -12 -3 -1 -1 -0 -0 0 0 0 0 0
0 0 0 0 0 0 0 0 0 0 -3 -75 -78 -49 -10 0 0 -0 0 -0 -3 -0 0 0 -0 -1 -15 -28 -36 -19 -15 -9 -9 -5 -0 -5 -1 -0 0 0 0 0 0
0 0 0 0 0 0 0 0 0 0 0 0 -67 -74 -20 -1 0 0 0 0 0 -3 -1 -0 -1 -3 -17 -26 -32 -43 -16 -21 -34 -14 -3 -1 -2 0 0 0 0 0 0
0 0 0 0 0 0 0 0 0 0 0 0 0 -46 -54 -10 -0 0 0 0 0 0 -3 -3 -1 -4 -19 -27 -31 -40 -25 -77 -40 -6 -3 -1 -1 0 0 0 0 0 0
0 0 0 0 0 0 0 0 0 0 0 0 0 0 -57 -38 0 0 -0 0 -5 -4 0 -5 -4 -5 -19 -33 -35 -33 -36 -56 -47 -5 -3 -3 -0 0 0 -1 0 0 0
0 0 0 0 0 0 0 0 0 0 0 0 0 0 0 -41 -33 0 0 0 0 0 -3 0 -4 -14 -20 -38 -43 -33 -40 -33 -52 -11 -5 -5 -1 0 0 0 0 0 0
0 0 0 0 0 0 0 0 0 0 0 0 0 0 0 0 0 -28 0 0 0 0 0 0 -1 -5 -13 -28 -32 -25 -27 -36 -43 -20 -17 -9 -2 0 0 0 0 0 0
0 0 0 0 0 0 0 0 0 0 0 0 0 0 0 0 0 0 -24 -0 0 0 0 0 0 -7 -6 -23 -50 -33 -38 -59 -27 -43 -38 -11 -1 0 -0 0 0 0 0
0 0 0 0 0 0 0 0 0 0 0 0 0 0 0 0 0 0 0 -24 0 -0 0 0 0 0 -6 -1 -36 -44 -32 -54 -26 -24 -52 -21 -8 0 0 0 0 0 0
0 0 0 0 0 0 0 0 0 0 0 0 0 0 0 0 0 0 0 0 -42 0 -0 0 0 0 0 -4 -1 -46 -44 -31 -36 -18 -73 -100 -26 -0 0 0 0 0 0
0 0 0 0 0 0 0 0 0 0 0 0 0 0 0 0 0 0 0 0 0 0 -1 -0 -0 0 -1 -16 0 -19 -56 -49 -26 -62 -104 -124 -47 -16 -0 0 0 0 0
0 0 0 0 0 0 0 0 0 0 0 0 0 0 0 0 0 0 0 0 0 0 0 -1 -0 0 -0 -0 -1 -0 -37 -55 -22 -111 -58 -114 -56 -76 -38 -19 0 0 0
0 0 0 0 0 0 0 0 0 0 0 0 0 0 0 0 0 0 0 0 0 0 0 0 -2 -22 0 0 0 -0 -10 -54 -29 -53 -87 -60 -53 -90 -202 -156 -1 -0 0
0 0 0 0 0 0 0 0 0 0 0 0 0 0 0 0 0 0 0 0 0 0 0 0 0 -1 -9 -0 -0 -0 -9 -29 -61 -33 -36 -58 -51 -175 -109 -107 -1 -1 -2
0 0 0 0 0 0 0 0 0 0 0 0 0 0 0 0 0 0 0 0 0 0 0 0 0 -11 -5 -7 -0 -0 -2 -16 -49 -21 -25 -27 -44 -66 -49 -8 -19 -3 -1
0 0 0 0 0 0 0 0 0 0 0 0 0 0 0 0 0 0 0 0 0 0 0 0 0 0 0 0 0 -1 -0 -9 -36 -29 -19 -22 -31 -45 -74 -27 -93 -39 -7
0 0 0 0 0 0 0 0 0 0 0 0 0 0 0 0 0 0 0 0 0 0 0 0 0 0 -0 0 0 -0 -0 -14 -26 -51 -27 -24 -32 -34 -34 -151 0 -70 -40
0 0 0 0 0 0 0 0 0 0 0 0 0 0 0 0 0 0 0 0 0 0 0 0 0 0 0 -0 0 -10 0 0 -14 -51 -65 -33 -23 -31 -36 -37 -15 -135 -3
0 0 0 0 0 0 0 0 0 0 0 0 0 0 0 0 0 0 0 0 0 0 0 0 0 0 0 -0 0 -0 0 0 0 -40 -62 -67 -47 -39 -39 -5 -21 -11 -1
0 0 0 0 0 0 0 0 0 0 0 0 0 0 0 0 0 0 0 0 0 0 0 0 0 0 0 0 0 -3 0 0 0 -1 -46 -25 -75 -55 -70 -38 -18 -3 -14
0 0 0 0 0 0 0 0 0 0 0 0 0 0 0 0 0 0 0 0 0 0 0 0 0 0 0 0 0 -0 0 0 0 -0 -3 -7 -6 -61 -57 -48 -49 -12 -4
0 0 0 0 0 0 0 0 0 0 0 0 0 0 0 0 0 0 0 0 0 0 0 0 0 0 0 0 0 0 -22 0 0 0 -0 -7 -28 -46 -41 -52 -41 -26 -10
Wind_Speed
nan nan nan nan nan nan nan nan 38 nan 40 40 36 32 28 26 25 24 26 25 26 25 27 27 25 24 26 23 22 22 21 23 22 23 24 26 27 24 23 21 17 12 16
nan nan nan nan nan nan nan 45 44 nan 46 46 45 40 33 26 24 24 23 23 23 25 26 26 26 25 26 26 26 26 25 25 23 24 24 24 25 22 20 18 16 12 14
nan nan nan nan nan nan nan 50 49 51 49 49 50 48 43 35 26 22 22 23 22 23 25 24 25 26 26 26 26 28 27 27 24 24 24 16 16 20 18 15 14 13 12
nan nan nan nan nan nan nan nan 55 56 55 54 52 53 48 41 39 24 24 23 23 23 25 24 22 24 27 25 27 26 25 26 24 23 18 16 16 18 16 13 13 11 10
nan nan nan nan nan nan nan nan nan nan 54 54 57 55 53 51 47 44 25 22 22 23 24 23 22 24 27 26 24 28 24 27 22 21 17 15 16 13 13 11 10 9 10
nan nan nan nan nan nan nan nan nan nan nan 56 57 58 59 55 53 51 45 25 21 22 21 23 23 25 26 26 24 27 26 25 24 21 17 16 16 14 10 10 9 9 9
nan nan nan nan nan nan nan nan nan nan nan nan 62 62 64 64 61 57 52 46 38 19 22 23 26 27 28 26 26 26 24 25 22 22 19 17 15 15 10 9 9 9 9
nan nan nan nan nan nan nan nan nan nan nan nan nan nan 63 63 65 60 57 52 50 38 33 24 26 30 29 25 27 27 22 24 22 22 21 19 14 14 11 9 8 9 9
nan nan nan nan nan nan nan nan nan nan nan nan nan nan nan 65 64 63 61 56 55 50 40 36 28 28 30 28 30 27 20 21 23 22 21 20 16 14 11 10 9 10 10
nan nan nan nan nan nan nan nan nan nan nan nan nan nan nan nan 67 62 62 60 57 55 49 42 42 31 31 31 33 24 26 18 24 23 22 21 17 13 12 11 10 11 12
nan nan nan nan nan nan nan nan nan nan nan nan nan nan nan nan nan nan 62 62 62 58 54 54 45 43 35 32 36 28 25 22 25 24 24 21 15 13 13 13 12 12 11
nan nan nan nan nan nan nan nan nan nan nan nan nan nan nan nan nan nan 70 68 68 61 59 57 56 51 38 42 41 32 26 22 25 24 25 23 22 14 14 16 15 13 11
nan nan nan nan nan nan nan nan nan nan nan nan nan nan nan nan nan nan nan nan 61 68 56 57 55 53 52 40 46 38 31 21 25 29 28 27 23 15 16 18 16 12 10
nan nan nan nan nan nan nan nan nan nan nan nan nan nan nan nan nan nan nan nan nan 67 63 61 58 52 51 50 37 46 37 25 27 32 28 25 35 20 18 18 15 11 11
nan nan nan nan nan nan nan nan nan nan nan nan nan nan nan nan nan nan nan nan nan nan nan nan 58 66 52 53 35 39 41 33 26 30 28 24 19 21 23 19 14 10 8
nan nan nan nan nan nan nan nan nan nan nan nan nan nan nan nan nan nan nan nan nan nan nan nan nan 56 60 62 44 34 41 39 30 29 30 28 24 29 32 27 15 11 7
nan nan nan nan nan nan nan nan nan nan nan nan nan nan nan nan nan nan nan nan nan nan nan nan nan nan 62 55 51 40 39 43 35 31 34 32 30 31 33 30 19 15 11
nan nan nan nan nan nan nan nan nan nan nan nan nan nan nan nan nan nan nan nan nan nan nan nan nan nan nan nan nan 48 43 44 37 36 38 36 nan nan 44 34 22 16 12
nan nan nan nan nan nan nan nan nan nan nan nan nan nan nan nan nan nan nan nan nan nan nan nan nan nan nan nan nan 59 54 41 41 43 38 38 33 34 32 28 30 27 18
nan nan nan nan nan nan nan nan nan nan nan nan nan nan nan nan nan nan nan nan nan nan nan nan nan nan nan nan nan nan 57 53 47 45 39 44 37 nan 30 nan nan 34 23
nan nan nan nan nan nan nan nan nan nan nan nan nan nan nan nan nan nan nan nan nan nan nan nan nan nan nan nan nan nan nan nan 56 42 52 45 44 nan nan nan nan nan 33
nan nan nan nan nan nan nan nan nan nan nan nan nan nan nan nan nan nan nan nan nan nan nan nan nan nan nan nan nan nan nan nan nan nan 45 34 42 45 39 35 nan nan 34
nan nan nan nan nan nan nan nan nan nan nan nan nan nan nan nan nan nan nan nan nan nan nan nan nan nan nan nan nan nan nan nan nan nan 55 49 39 45 46 30 nan 25 22
nan nan nan nan nan nan nan nan nan nan nan nan nan nan nan nan nan nan nan nan nan nan nan nan nan nan nan nan nan nan nan nan nan nan nan 45 46 49 40 40 36 31 31
nan nan nan nan nan nan nan nan nan nan nan nan nan nan nan nan nan nan nan nan nan nan nan nan nan nan nan nan nan nan nan nan nan nan nan 49 56 53 47 47 42 40 38
nan nan nan nan nan nan nan nan nan nan nan nan nan nan nan nan nan nan nan nan nan nan nan nan nan nan nan nan nan nan nan nan nan nan nan nan nan nan 49 50 47 47 49
Wind_Direction
nan nan nan nan nan nan nan nan 259 nan 259 256 252 259 283 281 281 285 293 295 298 305 312 314 316 305 304 300 295 297 298 291 285 280 277 273 278 277 278 277 270 257 265
nan nan nan nan nan nan nan 252 254 nan 257 254 254 253 255 281 279 283 288 292 290 298 307 311 314 307 302 303 298 295 294 293 291 282 275 275 279 277 271 266 265 256 259
nan nan nan nan nan nan nan 251 252 253 252 251 249 253 253 254 282 286 288 290 284 285 294 301 304 309 302 305 301 297 298 297 294 283 275 253 260 276 270 260 262 261 260
nan nan nan nan nan nan nan nan 249 249 247 246 248 249 249 246 246 281 291 285 280 278 285 294 299 299 301 296 304 296 292 296 292 280 247 241 256 274 272 264 263 260 255
nan nan nan nan nan nan nan nan nan nan 244 241 244 245 246 244 237 241 271 280 275 275 279 284 293 292 295 293 298 296 284 283 275 267 243 236 245 260 272 267 260 260 245
nan nan nan nan nan nan nan nan nan nan nan 244 243 238 240 242 241 236 241 257 274 262 269 279 281 290 291 287 287 294 282 277 268 254 242 249 235 266 269 257 252 242 242
nan nan nan nan nan nan nan nan nan nan nan nan 241 239 238 234 237 236 237 237 239 257 263 272 276 286 292 287 282 295 278 270 257 251 240 231 231 268 267 257 252 240 238
nan nan nan nan nan nan nan nan nan nan nan nan nan nan 233 236 230 230 236 232 231 230 228 259 268 274 281 282 277 281 277 266 258 249 245 231 247 265 263 257 243 239 236
nan nan nan nan nan nan nan nan nan nan nan nan nan nan nan 235 234 228 228 232 227 228 229 230 262 267 271 273 266 276 291 262 249 242 247 234 259 262 260 254 242 246 247
nan nan nan nan nan nan nan nan nan nan nan nan nan nan nan nan 235 236 230 232 230 224 221 230 235 260 260 265 265 260 280 249 244 243 238 235 259 257 259 247 241 243 252
nan nan nan nan nan nan nan nan nan nan nan nan nan nan nan nan nan nan 234 233 226 225 219 224 228 245 258 256 261 262 260 242 235 237 236 240 255 254 252 236 231 235 244
nan nan nan nan nan nan nan nan nan nan nan nan nan nan nan nan nan nan 236 230 223 220 222 221 227 233 253 250 248 259 236 258 230 235 232 249 258 246 246 236 231 235 234
nan nan nan nan nan nan nan nan nan nan nan nan nan nan nan nan nan nan nan nan 238 234 232 232 228 239 240 250 259 251 244 243 238 223 234 243 271 225 241 235 230 230 227
nan nan nan nan nan nan nan nan nan nan nan nan nan nan nan nan nan nan nan nan nan 233 227 232 235 233 232 234 253 253 248 237 246 229 230 253 265 231 235 239 231 214 217
nan nan nan nan nan nan nan nan nan nan nan nan nan nan nan nan nan nan nan nan nan nan nan nan 232 231 231 234 229 255 255 242 242 238 231 258 262 245 220 230 233 203 197
nan nan nan nan nan nan nan nan nan nan nan nan nan nan nan nan nan nan nan nan nan nan nan nan nan 222 231 231 226 249 262 244 244 241 232 231 253 254 211 196 219 205 175
nan nan nan nan nan nan nan nan nan nan nan nan nan nan nan nan nan nan nan nan nan nan nan nan nan nan 230 226 221 244 248 252 247 235 240 229 235 240 220 199 184 211 194
nan nan nan nan nan nan nan nan nan nan nan nan nan nan nan nan nan nan nan nan nan nan nan nan nan nan nan nan nan 232 243 250 251 245 237 233 nan nan 200 198 185 207 215
nan nan nan nan nan nan nan nan nan nan nan nan nan nan nan nan nan nan nan nan nan nan nan nan nan nan nan nan nan 228 239 241 250 251 246 238 228 239 234 236 196 194 209
nan nan nan nan nan nan nan nan nan nan nan nan nan nan nan nan nan nan nan nan nan nan nan nan nan nan nan nan nan nan 233 236 240 245 251 242 237 nan 238 nan nan 186 205
nan nan nan nan nan nan nan nan nan nan nan nan nan nan nan nan nan nan nan nan nan nan nan nan nan nan nan nan nan nan nan nan 236 238 244 238 242 nan nan nan nan nan 202
nan nan nan nan nan nan nan nan nan nan nan nan nan nan nan nan nan nan nan nan nan nan nan nan nan nan nan nan nan nan nan nan nan nan 233 241 247 236 228 228 nan nan 190
nan nan nan nan nan nan nan nan nan nan nan nan nan nan nan nan nan nan nan nan nan nan nan nan nan nan nan nan nan nan nan nan nan nan 229 233 239 236 231 234 nan 203 206
nan nan nan nan nan nan nan nan nan nan nan nan nan nan nan nan nan nan nan nan nan nan nan nan nan nan nan nan nan nan nan nan nan nan nan 224 226 238 231 219 219 217 207
nan nan nan nan nan nan nan nan nan nan nan nan nan nan nan nan nan nan nan nan nan nan nan nan nan nan nan nan nan nan nan nan nan nan nan 227 222 232 228 224 219 224 211
nan nan nan nan nan nan nan nan nan nan nan nan nan nan nan nan nan nan nan nan nan nan nan nan nan nan nan nan nan nan nan nan nan nan nan nan nan nan 228 227 215 218 218